This is the latest recevied weather packets stored in our database for station/object G7GQA-4. If no packets are shown the sender has not sent any weather packets the latest 10 day(s).
| Time | Temp. | Humidity | Pressure | Rain* | Wind** | Luminosity | Snow |
|---|---|---|---|---|---|---|---|
| 1777457727 | 15.56° C | 44% | - | 0 mm | - | 661 W/m² | - |
| 1777457127 | 15.56° C | 44% | - | 0 mm | - | 646 W/m² | - |
| 1777456527 | 15.56° C | 44% | - | 0 mm | - | 291 W/m² | - |
| 1777455927 | 15.56° C | 45% | - | 0 mm | - | 604 W/m² | - |
| 1777455327 | 15.56° C | 45% | - | 0 mm | - | 587 W/m² | - |
| 1777454727 | 15° C | 46% | - | 0 mm | - | 569 W/m² | - |
| 1777454127 | 15° C | 48% | - | 0 mm | - | 552 W/m² | - |
| 1777453527 | 14.44° C | 48% | - | 0 mm | - | 531 W/m² | - |
| 1777452927 | 13.89° C | 49% | - | 0 mm | - | 509 W/m² | - |
| 1777452327 | 13.89° C | 51% | - | 0 mm | - | 484 W/m² | - |
| 1777451726 | 13.33° C | 56% | - | 0 mm | - | 455 W/m² | - |
| 1777451126 | 12.78° C | 59% | - | 0 mm | - | 429 W/m² | - |
| 1777450526 | 13.33° C | 60% | - | 0 mm | - | 403 W/m² | - |
| 1777449926 | 12.22° C | 63% | - | 0 mm | - | 374 W/m² | - |
| 1777449326 | 11.67° C | 64% | - | 0 mm | - | 347 W/m² | - |
| 1777448726 | 11.11° C | 66% | - | 0 mm | - | 319 W/m² | - |
| 1777448126 | 11.11° C | 67% | - | 0 mm | - | 290 W/m² | - |
| 1777447526 | 11.11° C | 67% | - | 0 mm | - | 261 W/m² | - |
| 1777446926 | 10.56° C | 70% | - | 0 mm | - | 233 W/m² | - |
| 1777446326 | 10° C | 71% | - | 0 mm | - | 205 W/m² | - |
| 1777445726 | 9.44° C | 73% | - | 0 mm | - | 179 W/m² | - |
| 1777445126 | 9.44° C | 74% | - | 0 mm | - | 154 W/m² | - |
| 1777444526 | 8.89° C | 76% | - | 0 mm | - | 129 W/m² | - |
| 1777443926 | 8.89° C | 76% | - | 0 mm | - | 106 W/m² | - |
| 1777443326 | 8.89° C | 77% | - | 0 mm | - | 84 W/m² | - |
* Rain latest hour (hover to see other rain measurements)
** Current wind speed in m/s (hover to see current wind gust speed)